[[{"header":{"parameterUnit":"m.s-1","parameterCategory":1,"la1":30.2992,"la2":30.254,"lo1":-89.0895,"lo2":-89.0443,"dy":0.0025,"dx":0.0025,"nx":19,"ny":19,"refTime":"2026-04-16T09:00:00:Z","depth":0,"parameterNumber":2,"parameterNumberName":"U-component_of_WINDS"},"data":[0,0,0,-0.9206,-0.9205,-0.9115,-0.9114,-0.9014,-0.9013,0,0,0,0,0,0,0,0,0,0,0,-0.9241,-0.924,-0.9207,-0.9205,-0.9115,-0.9114,-0.9014,-0.9013,0,0,0,0,0,0,0,0,0,0,0,-0.9241,-0.9241,-0.924,-0.9204,-0.9115,-0.9114,-0.9014,-0.9077,0,0,0,0,0,0,0,0,0,0,-0.9162,-0.9201,-0.9241,-0.924,-0.9204,-0.9115,-0.9114,-0.908,-0.9073,-0.906,0,-0.9051,0,-0.903,-0.9007,-0.9007,0,0,0,-0.9199,-0.9207,-0.9175,-0.924,-0.9203,-0.9115,-0.9153,-0.9076,-0.9068,-0.9052,-0.9049,-0.9045,-0.9029,-0.9006,-0.9006,-0.8954,-0.8954,0,0,-0.9204,-0.9229,-0.9181,-0.9171,-0.9185,-0.9156,-0.9151,-0.9071,-0.907,-0.9049,-0.9042,-0.9027,-0.9006,-0.9005,-0.8954,-0.8954,0,0,0,-0.9222,-0.9233,-0.9203,-0.9175,-0.9158,-0.9154,-0.9147,-0.9073,-0.9062,-0.9041,-0.9026,-0.9005,-0.9004,-0.8954,-0.8954,-0.8981,0,0,0,-0.9225,-0.9243,-0.9205,-0.922,-0.916,-0.9114,-0.9152,-0.9067,-0.9057,-0.9026,-0.9005,-0.9003,-0.8954,-0.8954,-0.898,-0.8989,0,0,0,-0.9244,-0.9245,-0.9235,-0.9222,-0.9184,-0.9115,-0.9099,-0.9065,-0.9048,-0.9007,-0.9003,-0.8954,-0.8954,-0.898,-0.8988,-0.8984,0,0,0,-0.9272,-0.9259,-0.9236,-0.9215,-0.9185,-0.9133,-0.9099,-0.9058,-0.9026,-0.9005,-0.8954,-0.8954,-0.8979,-0.8987,-0.8984,-0.8986,-0.8989,0,0,-0.9269,-0.9259,-0.9245,-0.9222,-0.9181,-0.9144,-0.9107,-0.9053,-0.9025,-0.898,-0.8978,-0.8981,-0.8988,-0.8984,-0.8998,-0.9001,0,0,0,-0.9253,-0.9243,-0.9227,-0.9198,-0.9157,-0.9123,-0.9073,-0.9053,-0.9014,-0.9007,-0.8977,-0.8981,-0.8978,-0.8978,-0.898,-0.8976,-0.8955,-0.8955,-0.8955,-0.9284,-0.9252,-0.9227,-0.9185,-0.9157,-0.9107,-0.9082,-0.9047,-0.9021,-0.9015,-0.9001,-0.9013,-0.9014,-0.9016,-0.9012,-0.8999,-0.8999,-0.9,-0.9,-0.9277,-0.9259,-0.9228,-0.9192,-0.9159,-0.913,-0.9082,-0.9066,-0.9034,-0.902,-0.9016,-0.9004,-0.902,-0.9015,-0.9001,-0.9001,-0.9001,-0.9001,-0.9001,-0.9294,-0.9279,-0.9257,-0.9214,-0.9185,-0.9143,-0.9115,-0.9085,-0.9057,-0.9053,-0.9036,-0.9035,-0.9032,-0.9047,-0.9047,-0.9047,-0.9047,-0.9047,-0.9047,-0.9319,-0.9293,-0.9273,-0.9232,-0.9211,-0.918,-0.9132,-0.9111,-0.908,-0.9061,-0.9061,-0.9037,-0.9027,-0.9026,-0.9048,-0.9048,-0.9048,-0.9047,-0.9047,-0.9324,-0.9319,-0.9288,-0.9267,-0.9218,-0.9193,-0.9156,-0.9117,-0.9095,-0.9083,-0.9061,-0.9059,-0.9046,-0.9044,-0.9043,-0.9067,-0.9067,-0.9067,-0.9067,-0.9338,-0.9329,-0.9293,-0.9262,-0.9229,-0.9194,-0.9163,-0.9128,-0.909,-0.9075,-0.9068,-0.9064,-0.9063,-0.9051,-0.9048,-0.9047,-0.9072,-0.9072,-0.9072,-0.9339,-0.9327,-0.9305,-0.9268,-0.9229,-0.9196,-0.9167,-0.9135,-0.9091,-0.9071,-0.9064,-0.9064,-0.9056,-0.9055,-0.9034,-0.9031,-0.9027,0,0]},{"header":{"parameterUnit":"m.s-1","parameterCategory":1,"la1":30.2992,"la2":30.254,"lo1":-89.0895,"lo2":-89.0443,"dy":0.0025,"dx":0.0025,"nx":19,"ny":19,"refTime":"2026-04-16T09:00:00:Z","depth":0,"parameterNumber":3,"parameterNumberName":"V-component_of_WINDS"},"data":[0,0,0,4.008,4.0078,4.0007,4.0007,3.9908,3.9907,0,0,0,0,0,0,0,0,0,0,0,4.0099,4.0099,4.008,4.0078,4.0008,4.0007,3.9908,3.9907,0,0,0,0,0,0,0,0,0,0,0,4.01,4.0099,4.0098,4.0078,4.0008,4.0007,3.9909,3.9964,0,0,0,0,0,0,0,0,0,0,4.0034,4.0051,4.0099,4.0098,4.0078,4.0008,4.0007,3.9967,3.9961,3.9938,0,3.9921,0,3.9913,3.9901,3.99,0,0,0,4.0078,4.0056,4.0039,4.0098,4.0077,4.0008,4.0039,3.9963,3.9956,3.993,3.9919,3.9916,3.9911,3.99,3.9899,3.9778,3.9777,0,0,4.0082,4.0085,4.0044,4.0035,4.0049,4.0042,4.0037,3.9959,3.9946,3.9919,3.9913,3.9909,3.9899,3.9898,3.9778,3.9778,0,0,0,4.0093,4.0087,4.0072,4.0039,4.0027,4.004,4.0034,3.995,3.9945,3.9912,3.9908,3.9899,3.9897,3.9779,3.9778,3.9754,0,0,0,4.0096,4.0094,4.0074,4.0075,4.0028,3.9988,4.0027,3.995,3.9942,3.9909,3.9899,3.9896,3.978,3.9779,3.9756,3.9741,0,0,0,4.0104,4.0095,4.0085,4.0075,4.0045,3.9989,3.998,3.9949,3.9939,3.99,3.9896,3.978,3.9779,3.9758,3.9744,3.971,0,0,0,4.0113,4.0062,4.0084,4.0025,4.0046,3.9977,3.9981,3.9928,3.9892,3.9898,3.978,3.9778,3.9758,3.9746,3.9712,3.9681,3.9669,0,0,4.0049,4.0054,4.0019,4.0038,3.9966,3.9987,3.991,3.9872,3.9864,3.9806,3.9803,3.9755,3.9744,3.971,3.9603,3.9593,0,0,0,4.0,3.9975,3.9955,3.9923,3.9896,3.9871,3.9846,3.9832,3.9783,3.9836,3.9734,3.9727,3.9707,3.9692,3.9684,3.9666,3.9772,3.9772,3.9772,3.9911,3.9907,3.9849,3.9837,3.9806,3.9782,3.9755,3.9732,3.9734,3.9711,3.9692,3.9629,3.9611,3.9605,3.9587,3.9677,3.9677,3.9677,3.9677,3.9816,3.978,3.9789,3.9735,3.9731,3.9684,3.9659,3.9663,3.9617,3.9641,3.9623,3.9648,3.9595,3.9579,3.9675,3.9675,3.9676,3.9676,3.9676,3.9756,3.9738,3.9726,3.9681,3.9645,3.9634,3.9591,3.9588,3.9584,3.9566,3.9547,3.9547,3.9546,3.9558,3.9557,3.9557,3.9557,3.9557,3.9557,3.9699,3.9686,3.9652,3.9621,3.9601,3.9574,3.9551,3.9529,3.9504,3.9505,3.9505,3.9509,3.9592,3.9612,3.9553,3.9554,3.9554,3.9555,3.9555,3.9601,3.9624,3.9572,3.9552,3.9516,3.9481,3.9479,3.9436,3.9418,3.9397,3.9406,3.9469,3.9471,3.9478,3.9494,3.9408,3.9408,3.9408,3.9408,3.955,3.9553,3.95,3.9469,3.9438,3.9431,3.937,3.9352,3.9335,3.9323,3.9335,3.9358,3.9365,3.9363,3.9372,3.9387,3.9276,3.9276,3.9276,3.949,3.949,3.944,3.9429,3.9401,3.9376,3.9318,3.9279,3.9265,3.927,3.9313,3.9319,3.9355,3.9367,3.9371,3.9385,3.9413,0,0]}]]